This is the latest recevied weather packets stored in our database for station/object N8RJC-13. If no packets are shown the sender has not sent any weather packets the latest 10 day(s).
| Time | Temp. | Humidity | Pressure | Rain* | Wind** | Luminosity | Snow |
|---|---|---|---|---|---|---|---|
| 1777400241 | 21.67° C | 71% | 989.9 hPa | 0 mm | 0.89 m/s, 331° | - | - |
| 1777400181 | 21.67° C | 71% | 989.9 hPa | 0 mm | 0.89 m/s, 331° | - | - |
| 1777400121 | 22.22° C | 70% | 989.8 hPa | 0 mm | 0.45 m/s, 233° | - | - |
| 1777400061 | 22.22° C | 70% | 989.8 hPa | 0 mm | 0.45 m/s, 233° | - | - |
| 1777400001 | 22.22° C | 70% | 989.8 hPa | 0 mm | 0.45 m/s, 233° | - | - |
| 1777399941 | 22.22° C | 70% | 989.8 hPa | 0 mm | 0.45 m/s, 233° | - | - |
| 1777399881 | 22.22° C | 70% | 989.8 hPa | 0 mm | 0.45 m/s, 233° | - | - |
| 1777399824 | 22.22° C | 71% | 989.9 hPa | 0 mm | 1.34 m/s, 287° | - | - |
| 1777399701 | 22.22° C | 71% | 989.9 hPa | 0 mm | 1.34 m/s, 287° | - | - |
| 1777399641 | 22.22° C | 71% | 989.9 hPa | 0 mm | 1.34 m/s, 287° | - | - |
| 1777399581 | 22.22° C | 71% | 989.9 hPa | 0 mm | 1.34 m/s, 287° | - | - |
| 1777399521 | 21.67° C | 72% | 990 hPa | 0 mm | 0.89 m/s, 278° | - | - |
| 1777399461 | 21.67° C | 72% | 990 hPa | 0 mm | 0.89 m/s, 278° | - | - |
| 1777399401 | 21.67° C | 72% | 990 hPa | 0 mm | 0.89 m/s, 278° | - | - |
| 1777399341 | 21.67° C | 72% | 990 hPa | 0 mm | 0.89 m/s, 278° | - | - |
| 1777399281 | 21.67° C | 72% | 990 hPa | 0 mm | 0.89 m/s, 278° | - | - |
| 1777399221 | 22.22° C | 72% | 990 hPa | 0 mm | 1.79 m/s, 287° | - | - |
| 1777399161 | 22.22° C | 72% | 990 hPa | 0 mm | 1.79 m/s, 287° | - | - |
| 1777399101 | 22.22° C | 72% | 990 hPa | 0 mm | 1.79 m/s, 287° | - | - |
| 1777399041 | 22.22° C | 72% | 990 hPa | 0 mm | 1.79 m/s, 287° | - | - |
| 1777398981 | 22.22° C | 72% | 990 hPa | 0 mm | 1.79 m/s, 287° | - | - |
| 1777398921 | 22.78° C | 70% | 989.7 hPa | 0 mm | 0.45 m/s, 329° | - | - |
| 1777398861 | 22.78° C | 70% | 989.7 hPa | 0 mm | 0.45 m/s, 329° | - | - |
| 1777398801 | 22.78° C | 70% | 989.7 hPa | 0 mm | 0.45 m/s, 329° | - | - |
| 1777398741 | 22.78° C | 70% | 989.7 hPa | 0 mm | 0.45 m/s, 329° | - | - |
* Rain latest hour (hover to see other rain measurements)
** Current wind speed in m/s (hover to see current wind gust speed)